Location: Camaret
(48.2753°N, 4.5961°W)
Time: 02:29:22
(UTC+00:00)

USA 305 - Pass Details

Date: 29 October 2020
Orbit: 568 x 577 km, 54.0° (Epoch: 30 November)

Event Time Altitude Azimuth Distance (km) Brightness Sun altitude
Rises 17:46:33 0° 297° (WNW) 2,790 7.3 -7.7°
Reaches altitude 10° 17:48:51 10° 301° (WNW) 1,888 6.3 -8.1°
Maximum altitude 17:53:06 62° 22° (NNE) 650 3.0 -8.8°
Enters shadow 17:57:19 10° 104° (ESE) 1,863 5.0 -9.5°
